EW9523 Weather Reports


Display with metric or nautical units.
time (UTC)temp
F
wind
direction
speed
MPH
gust
MPH
rain 1hr
in
rain 24hr
in
rain mn
in
humidity
%
barometer
mb
20260905201346 78 185 3.0 7.0 0.00 0.00 0.00 44 1012.9
20260905200828 77 180 4.0 11.0 0.00 0.00 0.00 47 1013.0
20260905195344 77 115 3.0 10.0 0.00 0.00 0.00 48 1013.1
20260905194330 76 86 2.0 7.0 0.00 0.00 0.00 50 1013.1
20260905193328 76 110 3.0 7.0 0.00 0.00 0.00 50 1013.1
20260905192329 75 135 3.0 10.0 0.00 0.00 0.00 51 1013.2
20260905191328 75 71 3.0 7.0 0.00 0.00 0.00 51 1013.2
20260905190329 74 139 3.0 9.0 0.00 0.00 0.00 53 1013.4
20260905185324 73 198 2.0 7.0 0.00 0.00 0.00 54 1013.5
20260905184324 73 121 2.0 5.0 0.00 0.00 0.00 55 1013.5
20260905184243 73 184 2.0 7.0 0.00 0.00 0.00 55 1013.6
20260905182801 72 218 3.0 9.0 0.00 0.00 0.00 56 1013.6
20260905181323 71 124 1.0 6.0 0.00 0.00 0.00 59 1013.6
20260905180324 69 153 2.0 6.0 0.00 0.00 0.00 60 1013.6
20260905175324 69 293 1.0 4.0 0.00 0.00 0.00 62 1013.6
20260905174313 68 29 2.0 5.0 0.00 0.00 0.00 62 1013.7
20260905173313 67 331 1.0 5.0 0.00 0.00 0.00 67 1013.7
20260905172312 66 313 2.0 6.0 0.00 0.00 0.00 69 1013.6
20260905171310 65 15 2.0 7.0 0.00 0.00 0.00 70 1013.6
20260905170310 64 0 4.0 10.0 0.00 0.00 0.00 72 1013.6
20260905165310 63 0 3.0 8.0 0.00 0.00 0.00 74 1013.5
20260905164310 62 342 3.0 9.0 0.00 0.00 0.00 75 1013.5
20260905163310 61 28 4.0 10.0 0.00 0.00 0.00 76 1013.4
20260905162309 61 37 3.0 10.0 0.00 0.00 0.00 77 1013.5
20260905161311 60 355 4.0 9.0 0.00 0.00 0.00 79 1013.5
20260905160310 59 24 5.0 11.0 0.00 0.00 0.00 80 1013.5
20260905155308 58 30 4.0 10.0 0.00 0.00 0.00 81 1013.6
20260905154308 57 14 4.0 11.0 0.00 0.00 0.00 83 1013.5
20260905153308 56 70 3.0 12.0 0.00 0.00 0.00 84 1013.5
20260905152308 56 325 4.0 12.0 0.00 0.00 0.00 85 1013.5
20260905151308 55 346 4.0 10.0 0.00 0.00 0.00 86 1013.4
20260905151235 55 350 3.0 10.0 0.00 0.00 0.00 87 1013.3
20260905145746 54 325 3.0 9.0 0.00 0.00 0.00 87 1013.3
20260905144306 54 323 2.0 7.0 0.00 0.00 0.00 87 1013.3
20260905143306 54 355 1.0 5.0 0.00 0.00 0.00 86 1013.3
20260905142306 54 331 2.0 6.0 0.00 0.00 0.00 86 1013.2
20260905141246 54 297 1.0 5.0 0.00 0.00 0.00 86 1013.1
20260905140234 54 289 2.0 7.0 0.00 0.00 0.00 86 1013.0
20260905135222 54 30 2.0 5.0 0.00 0.00 0.00 86 1013.0
20260905134222 54 309 3.0 7.0 0.00 0.00 0.00 86 1012.9
20260905133222 54 320 3.0 7.0 0.00 0.00 0.00 86 1012.8
20260905132651 54 345 2.0 6.0 0.00 0.00 0.00 86 1012.9
20260905131218 54 15 2.0 6.0 0.00 0.00 0.00 86 1012.8
20260905130218 55 339 2.0 6.0 0.00 0.00 0.00 86 1012.9
20260905125216 55 321 3.0 7.0 0.00 0.00 0.00 86 1012.8
20260905124213 55 0 3.0 9.0 0.00 0.00 0.00 85 1012.8
20260905123212 55 323 2.0 6.0 0.00 0.01 0.00 85 1012.9
20260905122212 55 0 3.0 7.0 0.00 0.01 0.00 85 1012.9
20260905121204 56 342 3.0 7.0 0.00 0.01 0.00 85 1012.9
20260905120204 56 342 3.0 6.0 0.00 0.01 0.00 85 1012.8
20260905115651 56 17 1.0 4.0 0.00 0.01 0.00 84 1012.8
20260905114202 56 318 2.0 4.0 0.00 0.01 0.00 84 1012.8
20260905113156 56 355 2.0 9.0 0.00 0.01 0.00 84 1012.8
20260905112156 56 298 2.0 6.0 0.00 0.01 0.00 84 1012.8
20260905111120 56 338 2.0 5.0 0.00 0.01 0.00 83 1012.8
20260905110105 56 311 2.0 6.0 0.00 0.01 0.00 83 1012.9
20260905105103 56 15 2.0 6.0 0.00 0.01 0.00 83 1012.9
20260905104104 56 33 1.0 6.0 0.00 0.01 0.00 83 1012.9
20260905103102 57 28 1.0 6.0 0.00 0.01 0.00 83 1012.9
20260905102102 57 44 2.0 5.0 0.00 0.01 0.00 83 1012.9
20260905101058 57 323 2.0 6.0 0.00 0.01 0.00 83 1013.0
20260905100057 56 271 1.0 4.0 0.00 0.01 0.00 83 1012.9
20260905095057 57 284 1.0 6.0 0.00 0.01 0.00 82 1013.0
20260905094055 57 5 2.0 6.0 0.00 0.01 0.00 82 1013.0
20260905093034 57 5 1.0 6.0 0.00 0.01 0.00 82 1013.0
20260905092025 57 327 2.0 5.0 0.00 0.01 0.00 82 1013.0
20260905091026 57 17 2.0 5.0 0.00 0.01 0.00 81 1013.1
20260905090023 57 0 3.0 7.0 0.00 0.01 0.00 81 1013.3
20260905085024 57 330 2.0 6.0 0.00 0.01 0.00 82 1013.3
20260905084023 57 5 2.0 5.0 0.00 0.01 0.00 82 1013.4
20260905083024 57 355 0.0 3.0 0.00 0.01 0.00 82 1013.3
20260905082021 57 355 0.0 0.0 0.00 0.01 0.00 82 1013.3
20260905081018 57 355 0.0 0.0 0.00 0.01 0.00 81 1013.3
20260905080451 57 331 0.0 0.0 0.00 0.01 0.00 80 1013.4
20260905075006 57 5 0.0 0.0 0.00 0.01 0.00 81 1013.4
20260905074005 58 5 0.0 0.0 0.00 0.01 0.00 80 1013.4
20260905073005 58 5 0.0 0.0 0.00 0.01 0.00 80 1013.4
20260905072003 58 26 0.0 0.0 0.00 0.01 0.00 80 1013.3
20260905070959 58 44 0.0 0.0 0.00 0.01 0.00 79 1013.4
20260905065959 58 57 0.0 2.0 0.00 0.01 0.01 79 1013.4
20260905065433 58 45 0.0 2.0 0.00 0.01 0.01 78 1013.4
20260905063950 58 19 2.0 3.0 0.00 0.01 0.01 79 1013.3
20260905062951 58 44 1.0 3.0 0.00 0.01 0.01 79 1013.3
20260905061950 58 57 1.0 3.0 0.00 0.01 0.01 79 1013.2
20260905060945 58 355 1.0 4.0 0.00 0.01 0.01 78 1013.2
20260905055936 59 43 2.0 4.0 0.00 0.01 0.01 77 1013.3
20260905054935 59 58 2.0 3.0 0.00 0.01 0.01 77 1013.4
20260905053934 60 27 1.0 3.0 0.00 0.01 0.01 77 1013.4
20260905052934 60 350 1.0 4.0 0.00 0.01 0.01 76 1013.4
20260905051918 60 34 0.0 0.0 0.00 0.01 0.01 75 1013.4
20260905050846 61 28 0.0 0.0 0.00 0.01 0.01 74 1013.4
20260905045836 61 16 0.0 0.0 0.00 0.01 0.01 74 1013.4
20260905044829 61 17 1.0 3.0 0.00 0.01 0.01 73 1013.3
20260905043826 61 47 2.0 4.0 0.00 0.01 0.01 71 1013.3
20260905042826 62 30 0.0 3.0 0.00 0.01 0.01 70 1013.3
20260905041826 62 344 0.0 0.0 0.00 0.01 0.01 69 1013.2
20260905041302 63 23 0.0 0.0 0.00 0.01 0.01 68 1013.1
20260905035824 64 33 0.0 2.0 0.00 0.01 0.01 67 1013.0
20260905034824 64 9 1.0 3.0 0.00 0.01 0.01 66 1012.8
20260905033820 65 11 0.0 2.0 0.00 0.01 0.01 64 1012.6
20260905032820 66 321 0.0 0.0 0.00 0.01 0.01 62 1012.5
20260905031814 66 321 1.0 4.0 0.00 0.01 0.01 61 1012.4
20260905030756 67 302 2.0 6.0 0.00 0.01 0.01 60 1012.4
20260905025747 68 300 1.0 9.0 0.00 0.01 0.01 60 1012.3
20260905025223 69 317 1.0 7.0 0.00 0.01 0.01 59 1012.2
20260905023744 69 355 1.0 5.0 0.00 0.01 0.01 58 1012.2
20260905022738 70 340 2.0 9.0 0.00 0.01 0.01 57 1012.2
20260905021732 71 274 3.0 9.0 0.00 0.01 0.01 56 1012.2
20260905020729 72 221 5.0 11.0 0.00 0.01 0.01 55 1012.0
20260905015730 72 207 5.0 13.0 0.00 0.01 0.01 55 1012.0
20260905014727 73 253 4.0 15.0 0.00 0.01 0.01 56 1012.1
20260905013726 74 279 5.0 14.0 0.00 0.01 0.01 55 1011.9
20260905012726 74 242 3.0 12.0 0.00 0.01 0.01 55 1011.8
20260905011715 74 262 5.0 11.0 0.00 0.01 0.01 55 1011.7
20260905010704 75 259 5.0 11.0 0.00 0.01 0.01 55 1011.7
20260905005703 75 319 6.0 14.0 0.00 0.01 0.01 53 1011.5
20260905004702 76 252 6.0 13.0 0.00 0.01 0.01 52 1011.6
20260905004148 77 275 5.0 11.0 0.00 0.01 0.01 49 1011.4
20260905002658 78 221 5.0 14.0 0.00 0.01 0.01 47 1011.4
20260905001657 78 257 3.0 9.0 0.00 0.01 0.01 43 1011.3
20260905000656 78 251 4.0 9.0 0.00 0.01 0.01 40 1011.4
20260905000136 78 300 4.0 9.0 0.00 0.01 0.01 39 1011.4
20260904234654 78 293 3.0 9.0 0.00 0.01 0.01 38 1011.4
20260904233654 78 275 3.0 10.0 0.00 0.01 0.01 38 1011.4
20260904232641 78 291 3.0 10.0 0.00 0.01 0.01 38 1011.5
20260904231630 78 129 1.0 4.0 0.00 0.01 0.01 38 1011.4
20260904230621 78 151 2.0 7.0 0.00 0.01 0.01 38 1011.5
20260904225619 78 268 2.0 10.0 0.00 0.01 0.01 38 1011.6
20260904225053 77 108 3.0 7.0 0.00 0.01 0.01 39 1011.6
20260904223617 77 215 2.0 6.0 0.00 0.01 0.01 39 1011.8
20260904222618 77 278 3.0 7.0 0.00 0.01 0.01 39 1012.0
20260904221613 77 222 3.0 9.0 0.00 0.01 0.01 39 1012.0
20260904220611 76 290 4.0 11.0 0.00 0.01 0.01 40 1012.0
20260904215610 77 275 4.0 11.0 0.00 0.01 0.01 40 1012.2
20260904214610 77 240 3.0 10.0 0.00 0.01 0.01 40 1012.1
20260904213607 76 211 4.0 9.0 0.00 0.01 0.01 42 1012.1
20260904212608 76 225 4.0 14.0 0.00 0.01 0.01 42 1012.3
20260904211608 75 207 3.0 8.0 0.00 0.01 0.01 43 1012.4
20260904210608 75 180 2.0 6.0 0.00 0.01 0.01 44 1012.4
20260904205607 74 198 3.0 10.0 0.00 0.01 0.01 44 1012.4
20260904204608 75 44 3.0 6.0 0.00 0.01 0.01 44 1012.4
20260904203608 74 173 3.0 8.0 0.00 0.01 0.01 45 1012.4
20260904202608 73 116 3.0 6.0 0.00 0.01 0.01 46 1012.5